This demonstration page uses our WeatherBlox Daily Observations layout. Learn more.

Left ArrowRight Arrow

41.55636, -103.73856

Hourly Observations for December 20, 2020

Temp ( °F °C ) Dew Point ( °F °C ) Humidity (%) Winds ( mph kmh ) Pressure ( in mb ) Visibility ( mi km ) Precip ( " mm )
12:56 am 00:56 Partly Cloudy 29 -1.5 20 -6.9 67 67 W 12 19 30.18 1022 10 16 0.00 0.00
1:56 am 01:56 Clear 29 -1.4 19 -7.1 66 66 WNW 14 22 30.17 1022 10 16 0.00 0.00
2:56 am 02:56 Clear 25 -4.1 18 -8 75 75 WSW 8 13 30.18 1022 10 16 0.00 0.00
3:56 am 03:56 Clear 28 -2.1 19 -7.5 67 67 W 12 19 30.14 1021 10 16 0.00 0.00
4:56 am 04:56 Clear 30 -1.2 18 -7.7 62 62 NW 6 9 30.11 1020 10 16 0.00 0.00
5:56 am 05:56 Mostly Clear 23 -4.8 16 -8.8 74 74 WSW 9 15 30.10 1019 10 16 0.00 0.00
6:56 am 06:56 Mostly Cloudy 26 -3.4 17 -8.6 68 68 SSW 9 15 30.06 1018 10 16 0.00 0.00
7:56 am 07:56 Sunny 32 0.2 17 -8.5 52 52 W 12 19 30.04 1017 10 16 0.00 0.00
8:56 am 08:56 Sunny 38 3.6 15 -9.7 37 37 SW 20 31 29.98 1015 10 16 0.00 0.00
9:56 am 09:56 Sunny 42 5.8 15 -9.2 33 33 SW 17 28 29.94 1014 10 16 0.00 0.00
10:56 am 10:56 Mostly Sunny 48 9 15 -9.4 26 26 WNW 24 39 29.91 1013 10 16 0.00 0.00
11:56 am 11:56 Mostly Sunny 50 9.8 17 -8.2 28 28 WNW 28 44 29.89 1012 10 16 0.00 0.00
12:56 pm 12:56 Sunny 50 10.2 20 -6.8 30 30 WNW 29 46 29.89 1012 10 16 0.00 0.00
1:56 pm 13:56 Sunny 51 10.7 21 -6.1 30 30 WNW 25 41 29.85 1011 10 16 0.00 0.00
2:56 pm 14:56 Sunny 50 10 21 -6 32 32 WNW 31 50 29.86 1011 10 16 0.00 0.00
3:57 pm 15:57 Sunny 49 9.4 22 -5.5 35 35 WNW 31 50 29.87 1012 10 16 0.00 0.00
4:56 pm 16:56 Clear 48 8.9 22 -5.3 37 37 WNW 35 56 29.89 1012 10 16 0.00 0.00
5:56 pm 17:56 Clear 46 8 23 -4.8 40 40 WNW 28 44 29.93 1014 10 16 0.00 0.00
6:56 pm 18:56 Mostly Clear 46 8 24 -4.3 42 42 WNW 35 56 29.95 1014 10 16 0.00 0.00
7:56 pm 19:56 Clear 46 7.7 25 -4 44 44 WNW 24 39 29.94 1014 10 16 0.00 0.00
8:57 pm 20:57 Clear 46 7.5 26 -3.6 46 46 WNW 24 39 29.92 1013 10 16 0.00 0.00
9:57 pm 21:57 Clear 46 7.9 27 -3 46 46 WNW 28 44 29.92 1013 10 16 0.00 0.00
10:56 pm 22:56 Clear 46 7.5 28 -2.5 49 49 NW 23 37 29.93 1014 10 16 0.00 0.00
11:56 pm 23:56 Clear 44 6.6 28 -2.4 53 53 NW 18 30 29.94 1014 10 16 0.00 0.00

Powered by AerisWeather